Theta_e
313 313 314 314 314 313 313 313 312 310 308 323 320 323 309 307 304 313 315 316 313 308 301 304 302 299 300 303 302 303 301 300 301 301 302 300 302 301 300 300 299 299 299 298 297 298 294 296 295 297 296 296 298 300 302 303 303 305 301 304 302 306 301 297 296 299 300 302 303 303 303 302 301 302 303 302 301 301 301 302 306 301 302 299 301 300 305
313 313 314 314 314 313 312 312 312 311 309 318 321 318 309 307 306 309 314 316 313 306 298 297 298 299 301 301 299 302 300 301 300 300 301 300 300 299 299 300 302 299 301 300 297 300 294 297 296 295 298 296 300 300 301 303 302 302 300 301 303 299 301 301 295 294 295 297 301 300 302 302 300 299 300 301 302 302 303 305 308 302 302 302 300 296 300
313 314 314 314 313 313 312 313 312 312 310 314 321 314 311 309 309 308 310 314 312 302 303 301 299 299 299 299 298 299 299 301 301 301 300 302 302 300 298 300 301 300 301 299 300 300 299 295 299 298 297 296 300 299 300 302 302 303 305 304 306 301 300 300 293 291 288 288 289 293 295 297 299 300 299 300 299 300 302 300 303 297 304 307 302 300 306
313 314 314 314 313 313 313 312 312 311 311 306 322 315 315 305 301 304 305 309 307 306 308 305 302 300 300 298 298 299 297 300 301 302 300 302 302 302 300 301 302 300 300 299 298 298 301 299 297 299 297 297 298 299 300 300 301 304 304 304 304 300 301 301 298 297 295 296 297 298 300 299 297 296 297 297 299 300 302 303 302 298 303 303 304 306 308
313 314 314 313 313 313 313 312 312 311 310 309 320 317 312 308 303 303 299 305 305 303 305 303 303 299 301 296 298 296 297 298 299 302 297 301 301 300 300 300 298 297 298 297 297 298 298 301 300 298 297 298 298 300 300 300 302 304 302 304 303 301 297 297 299 298 298 298 297 297 299 297 297 296 296 297 297 299 300 300 299 302 302 297 303 311 308
313 314 314 314 313 313 312 312 311 311 309 306 322 309 313 301 304 307 306 300 297 300 299 303 301 301 302 298 300 297 297 297 296 299 301 301 303 299 300 300 299 299 298 298 295 297 297 298 295 298 298 297 298 298 300 298 301 302 300 303 302 298 294 295 296 295 297 298 297 298 297 297 296 296 296 296 296 298 298 298 299 302 300 299 301 305 308
313 314 315 315 314 313 313 313 312 310 308 310 324 308 309 309 307 306 308 302 302 302 301 302 301 301 301 299 299 297 296 295 297 298 298 300 299 301 296 297 299 298 300 299 297 298 293 293 299 298 297 298 298 297 298 299 300 300 299 301 303 299 295 296 296 294 295 296 296 296 295 295 295 295 295 296 296 296 297 296 298 298 301 301 302 305 307
313 314 314 315 314 314 314 313 312 311 308 320 318 314 309 306 307 302 307 306 303 303 303 302 301 298 301 298 298 298 297 296 298 299 300 296 298 301 298 298 300 300 300 300 297 298 299 298 295 299 298 297 300 298 298 298 301 300 298 299 301 300 294 295 295 294 293 294 295 296 295 294 293 294 295 295 296 296 297 297 298 298 299 299 300 303 303
313 314 314 315 314 314 314 313 311 310 311 319 315 312 316 313 316 316 306 302 303 304 303 302 301 299 301 299 299 298 298 297 299 298 302 300 298 299 297 299 299 300 300 299 299 301 301 300 299 300 300 297 299 300 300 301 299 299 298 299 299 299 297 297 295 293 292 293 294 293 295 294 293 293 294 294 294 294 296 297 302 300 299 300 299 299 303
313 314 314 315 314 314 314 314 313 310 310 320 317 309 318 317 316 317 310 301 303 301 301 302 302 297 301 302 300 300 298 299 300 297 301 302 302 301 300 301 300 299 299 298 300 302 302 302 302 303 303 303 303 303 302 302 301 300 299 299 298 300 296 293 293 291 292 293 293 293 292 293 291 292 294 296 296 298 301 304 306 306 308 301 297 299 311
313 314 314 314 314 315 315 314 314 310 319 320 319 314 317 316 312 312 309 302 302 303 302 301 301 300 301 301 299 300 299 299 301 299 296 300 300 303 302 302 300 299 299 301 305 306 305 305 305 306 304 303 302 303 303 302 303 302 301 299 298 299 298 295 296 291 293 292 292 294 291 286 288 298 300 299 299 299 298 301 304 307 306 306 309 309 311
313 313 314 314 315 315 315 315 314 311 312 324 324 317 318 319 318 312 307 300 299 303 303 300 301 301 301 301 301 300 300 300 300 303 299 300 301 302 302 302 303 298 303 308 307 307 307 307 306 306 304 303 303 303 303 302 302 305 303 301 298 298 297 297 296 293 292 293 293 290 285 287 297 301 301 302 302 303 303 305 305 306 307 308 308 308 308
312 313 314 314 314 314 315 314 313 313 310 322 323 318 320 320 317 310 308 305 300 302 301 300 304 303 302 302 301 301 302 303 302 303 302 301 300 303 304 303 302 302 308 306 306 305 302 299 301 301 301 302 302 302 302 302 301 302 303 303 302 298 297 298 295 296 296 292 292 283 285 295 298 299 302 304 304 305 305 302 305 307 307 308 307 309 309
312 313 313 314 314 314 314 314 313 313 311 314 321 320 321 322 321 313 308 305 301 303 305 302 303 302 302 303 303 302 303 302 304 304 302 303 302 302 304 306 307 309 308 308 305 304 300 300 297 296 297 299 299 298 300 301 301 301 301 303 302 301 300 299 295 298 291 293 292 290 297 295 296 295 298 302 300 300 300 298 302 306 308 308 308 309 309
312 312 313 314 314 314 314 314 314 313 313 310 324 321 320 321 321 317 313 312 301 303 305 301 302 303 303 303 303 302 302 303 302 302 305 306 304 306 306 308 310 309 309 306 303 303 300 298 292 291 294 293 288 291 299 297 300 301 301 302 303 303 301 300 295 293 296 292 290 291 290 286 294 302 305 306 306 307 307 299 298 308 308 309 307 308 307
312 312 313 313 314 314 314 314 314 313 313 311 324 321 320 321 323 322 315 309 306 299 303 306 306 305 304 303 304 303 302 301 303 302 302 304 305 306 308 310 311 310 307 305 305 302 300 294 288 289 288 290 296 293 290 297 296 299 301 302 302 302 302 301 297 295 295 292 287 287 284 290 300 302 303 305 306 305 306 299 293 307 309 308 309 306 307
312 312 312 313 313 313 313 314 314 313 313 311 320 321 319 324 320 319 317 311 308 303 307 308 308 307 305 302 303 302 304 302 302 300 300 302 304 305 307 309 311 309 307 304 303 299 297 291 295 290 291 296 289 288 295 291 294 295 299 300 300 299 298 298 295 294 295 293 289 287 293 291 300 303 303 304 308 304 303 290 291 305 307 307 308 306 306
312 312 312 312 313 313 313 313 313 313 312 311 318 320 319 324 325 324 318 312 306 305 308 309 307 304 304 306 304 307 306 305 304 305 303 305 305 304 305 306 305 307 309 302 302 298 296 292 290 289 289 298 297 291 286 292 291 294 293 296 294 296 296 296 292 294 293 290 291 293 295 302 304 304 305 306 306 304 294 287 299 305 307 308 308 307 307
311 311 312 312 312 313 313 313 313 313 313 311 318 322 321 322 324 325 321 314 309 303 309 311 312 310 311 309 309 308 308 308 307 302 302 301 304 308 307 307 308 302 305 301 302 298 294 294 299 293 291 292 293 288 292 287 290 298 298 293 293 295 296 296 296 292 292 294 290 291 295 302 305 306 306 307 301 290 291 303 308 309 308 309 309 308 308
311 311 311 312 312 312 313 313 313 313 313 312 314 320 319 321 322 323 319 312 311 309 311 311 310 307 310 307 306 305 307 305 307 305 303 299 308 306 303 301 306 306 304 305 298 300 295 291 293 293 290 293 292 297 290 291 299 296 295 297 293 294 291 290 291 295 294 294 290 288 284 300 306 306 304 305 295 297 304 307 308 308 309 308 308 308 308
311 311 311 311 312 312 312 312 312 312 312 312 311 319 320 322 321 323 323 318 313 307 311 313 314 312 312 310 310 310 308 306 307 303 306 306 309 305 294 297 302 302 300 301 295 297 298 293 297 291 298 293 296 291 289 291 293 301 300 298 296 298 292 292 294 297 289 289 286 287 297 303 308 304 297 304 304 308 309 307 306 309 308 308 308 308 309
311 311 311 311 311 311 312 312 312 312 312 312 311 318 317 320 320 322 322 320 315 311 313 316 315 314 315 315 315 316 313 311 312 312 309 307 310 306 307 306 305 304 307 306 301 299 299 299 301 296 293 295 300 292 295 290 289 298 302 300 289 302 296 300 293 301 294 292 297 303 304 306 308 305 304 307 310 311 311 309 307 306 307 310 307 307 308
311 311 311 311 311 311 311 311 312 312 311 312 314 320 317 318 319 321 321 317 321 319 319 318 317 317 317 318 319 319 318 318 316 314 313 308 306 308 306 306 305 310 310 308 303 302 302 300 297 300 297 299 293 292 297 294 292 296 291 301 298 304 304 306 300 297 303 304 304 306 305 305 305 307 308 307 310 309 309 308 306 307 308 309 307 307 308
310 310 311 311 311 311 311 311 311 311 311 311 312 316 317 317 317 319 320 318 313 309 316 315 312 311 311 312 316 319 318 317 317 318 319 316 306 306 310 310 312 309 309 311 313 305 304 303 302 302 293 300 301 294 291 290 291 298 297 297 300 303 304 300 296 302 296 291 304 302 303 305 305 305 308 310 310 309 310 308 307 307 308 308 309 308 308
311 310 310 311 311 311 310 311 311 311 311 311 313 315 315 316 318 317 316 309 309 309 303 308 311 313 314 317 318 316 318 320 320 318 316 316 313 307 306 312 313 309 308 311 312 308 306 301 301 300 294 302 302 292 301 293 294 302 292 297 299 299 306 299 299 299 297 297 302 304 305 306 307 306 305 306 308 309 309 309 309 309 310 309 309 309 308
310 310 310 310 310 310 310 310 310 310 310 310 310 313 315 316 317 316 318 319 315 313 307 304 308 313 317 314 314 316 318 318 318 317 316 316 316 315 313 314 313 315 314 312 310 306 304 303 303 302 298 298 305 298 297 300 300 304 298 297 303 303 303 295 300 297 300 304 304 304 306 306 306 306 307 307 307 308 308 309 309 309 309 309 309 309 308
310 310 310 310 310 310 310 310 310 310 310 309 312 313 312 314 315 315 317 316 312 308 309 305 310 313 315 312 314 316 316 317 316 316 316 316 315 316 315 314 313 312 311 310 310 308 306 303 302 299 301 300 305 302 302 300 300 298 298 301 307 302 297 301 300 296 296 297 301 304 298 298 303 306 307 308 308 308 308 309 309 308 308 309 308 308 309
310 310 309 310 310 310 310 309 309 309 309 310 312 314 315 313 314 315 316 316 314 307 307 308 307 312 316 309 314 316 316 317 316 315 315 314 315 314 313 313 313 310 309 307 304 304 303 300 299 305 305 306 302 299 304 303 303 300 299 302 305 300 302 301 296 296 296 303 304 306 305 305 305 306 308 309 309 309 308 308 308 309 309 309 308 307 308
310 309 309 309 309 309 309 309 309 309 310 310 314 313 314 314 315 313 314 316 316 314 311 312 314 313 307 310 314 316 317 317 316 316 315 315 315 314 313 313 312 311 311 310 308 306 303 304 307 304 303 309 304 300 301 296 296 293 298 304 305 307 307 305 304 304 304 305 306 307 306 303 306 308 309 309 310 309 308 309 310 309 309 309 309 309 307
309 309 309 308 308 309 308 308 309 310 310 314 315 314 312 312 314 315 313 315 317 317 309 307 304 308 315 314 312 314 315 316 316 315 315 314 314 314 315 314 314 313 312 309 309 304 306 305 307 310 310 311 302 302 297 298 297 299 305 306 308 306 306 306 306 304 301 307 308 310 310 308 308 310 310 310 311 310 308 309 310 310 310 310 309 308 308
309 309 308 308 308 308 308 308 309 310 310 313 313 311 309 306 313 315 312 315 318 315 311 309 306 310 310 315 314 313 314 315 316 314 313 313 314 315 316 316 315 314 309 310 309 307 307 303 305 305 308 307 304 299 296 295 294 297 303 304 305 305 306 307 307 307 306 306 307 308 309 308 309 309 309 309 310 310 309 310 311 310 310 310 309 309 307
309 309 308 308 307 308 308 308 308 309 312 311 312 312 312 311 314 314 313 315 318 314 309 305 305 307 308 311 314 315 314 314 314 315 314 315 314 315 315 314 313 315 312 309 310 306 304 309 307 306 302 305 302 299 298 294 292 295 304 304 306 307 308 307 307 308 309 309 308 307 305 305 308 306 305 309 310 310 310 310 311 311 309 309 310 309 308
308 308 308 307 307 308 308 309 309 309 312 312 309 308 309 308 309 312 314 316 316 313 313 307 303 305 305 309 313 313 314 314 313 313 312 316 315 315 311 313 312 311 312 307 303 301 307 307 306 301 304 308 300 298 295 294 296 302 305 306 307 308 308 308 308 308 308 308 309 304 303 305 308 309 309 310 310 310 310 310 310 310 310 309 307 307 306
308 307 307 307 307 308 309 309 311 309 309 311 314 316 318 310 311 309 317 317 314 315 314 307 303 303 304 312 308 312 314 308 308 311 305 316 316 313 309 309 311 306 309 305 308 307 307 305 302 303 304 303 303 299 295 299 303 303 304 304 306 307 309 309 308 307 308 308 309 309 309 310 311 311 309 309 309 310 310 310 309 308 307 306 305 304 305
308 307 307 308 309 309 310 310 311 314 315 316 317 320 317 310 311 312 313 316 308 307 306 308 307 302 300 304 304 307 315 310 308 310 306 310 316 309 311 306 309 303 306 311 305 304 303 303 307 300 297 304 300 295 298 301 301 303 305 305 307 307 308 307 308 310 310 311 310 309 309 309 307 306 306 306 306 307 308 308 308 307 305 305 304 303 304
308 308 309 309 310 310 312 311 313 315 315 314 316 315 312 313 313 317 318 318 314 307 306 305 305 303 303 300 300 310 315 309 312 312 311 311 309 315 310 309 301 305 311 305 301 305 302 310 304 297 304 296 294 297 300 303 303 303 305 304 305 305 306 306 306 307 308 308 308 307 307 307 306 305 305 305 305 306 307 306 306 306 304 304 303 304 304
308 309 309 309 310 311 312 314 316 316 315 317 317 315 315 316 317 317 314 314 317 318 308 306 303 303 304 304 308 312 310 303 310 307 309 306 304 309 308 306 300 306 305 302 303 301 305 311 302 297 297 294 298 302 305 303 303 303 303 305 306 308 308 309 309 308 307 307 305 305 305 304 304 304 304 303 304 305 305 304 304 304 303 302 303 303 304
309 310 312 311 313 312 311 312 314 315 315 313 314 313 312 313 308 308 310 308 312 313 311 310 303 307 311 307 303 314 310 306 310 304 306 309 304 304 308 304 303 304 296 300 303 310 305 303 300 296 297 302 303 304 303 304 306 308 308 308 308 308 309 308 308 306 303 301 300 301 302 302 301 302 302 303 303 302 303 304 305 305 304 304 304 304 303
309 311 311 313 313 310 311 312 318 316 317 318 317 310 308 311 308 304 305 307 309 305 311 307 306 310 308 306 308 317 309 304 303 305 300 310 302 298 305 295 304 303 296 298 301 309 298 298 298 297 295 299 301 303 305 308 308 308 308 309 307 308 309 307 307 305 303 302 302 303 302 300 300 301 303 303 304 304 304 303 303 303 303 304 304 304 303
311 311 312 312 311 312 316 316 316 316 316 311 313 310 304 309 302 297 309 300 301 306 308 304 311 311 310 306 304 305 316 307 302 300 302 303 309 299 304 302 305 298 291 294 298 306 297 292 296 295 294 297 298 302 304 306 307 308 309 308 308 308 308 307 307 308 307 306 307 305 305 305 305 304 303 303 302 301 302 303 303 303 304 304 304 303 303
310 312 312 311 313 315 317 319 318 315 311 307 307 308 305 298 307 307 305 301 300 304 311 309 311 309 311 310 310 304 314 314 314 312 307 301 312 307 300 296 306 297 295 294 303 302 299 296 294 292 295 297 299 301 303 304 304 306 309 310 310 309 308 309 307 309 309 306 306 307 307 306 306 305 304 304 303 303 304 304 303 304 304 303 303 303 304
312 312 313 314 314 316 317 316 314 310 309 310 302 295 300 302 306 305 305 298 299 306 309 309 305 306 305 309 309 310 310 316 313 309 304 298 307 301 297 300 300 292 288 300 303 300 298 288 290 290 295 298 301 302 302 302 303 303 305 309 309 309 308 308 309 309 309 306 306 306 306 306 306 305 306 306 305 305 304 304 304 304 303 304 304 305 304
306 310 314 313 314 312 313 303 309 308 296 295 294 291 299 294 299 300 303 308 314 308 309 315 312 314 315 315 312 314 309 314 308 307 302 299 307 304 297 294 295 288 295 305 299 294 289 288 288 294 298 299 301 301 302 302 303 303 303 305 308 310 309 308 307 309 307 306 305 305 305 306 306 306 307 306 306 305 306 305 305 304 304 304 304 303 302
313 314 312 313 309 309 309 293 309 303 296 296 294 290 298 298 301 301 300 304 307 306 311 307 308 307 303 312 308 305 311 311 311 308 305 306 300 296 296 290 292 301 303 297 293 288 289 294 296 296 299 298 299 300 300 301 301 302 302 303 305 309 306 306 308 305 308 309 307 306 306 305 305 306 306 306 305 304 304 305 305 304 304 304 303 302 302
311 308 306 306 301 305 299 291 306 298 292 297 299 301 301 298 300 301 301 310 308 306 311 311 310 310 306 312 312 311 308 303 310 302 296 302 297 299 294 292 299 299 293 289 290 293 293 291 296 298 299 297 299 301 301 301 301 301 302 302 303 306 306 304 305 305 305 306 306 305 303 304 304 304 305 305 306 306 305 304 304 303 303 302 302 301 302
310 303 301 295 290 295 296 293 295 292 303 304 305 307 305 306 306 305 311 312 309 311 309 310 311 310 307 311 304 301 306 308 301 302 303 302 293 291 299 303 301 292 291 290 286 285 287 293 297 298 299 298 299 301 301 301 302 303 302 301 302 303 306 306 304 304 304 306 307 306 304 303 303 303 304 305 305 305 305 305 305 303 303 301 300 300 301
309 310 303 300 294 297 306 294 299 304 306 307 309 309 309 310 311 311 313 313 311 312 312 314 311 310 305 305 306 306 308 307 298 303 302 296 293 295 302 295 287 289 285 283 284 287 291 295 297 298 298 299 299 300 300 300 301 301 301 302 302 302 305 306 305 304 305 307 307 306 305 304 305 305 304 304 304 305 305 305 304 303 302 301 301 301 301
299 306 306 294 292 297 296 303 309 308 309 310 312 312 312 313 311 310 315 314 314 314 312 312 309 309 307 313 307 299 300 304 298 300 301 296 297 293 289 289 288 290 289 286 287 292 293 294 295 296 298 298 298 297 298 298 298 299 299 300 301 302 303 305 306 304 304 304 305 304 304 305 306 305 305 304 304 304 304 303 303 303 303 302 302 301 300
311 301 298 297 304 304 304 308 307 305 309 310 311 310 311 311 311 312 314 316 315 314 315 311 309 304 299 303 300 298 295 300 292 291 298 295 290 285 286 283 285 283 290 292 291 292 293 295 297 298 298 298 298 297 297 298 298 298 298 299 301 302 304 305 307 307 305 305 305 303 305 307 306 306 305 303 302 302 304 304 303 302 302 302 301 301 300
301 300 305 299 303 306 308 308 306 303 307 309 309 309 312 311 311 312 316 315 316 316 314 311 311 303 301 301 293 296 293 298 295 293 292 289 289 291 288 282 286 286 288 293 292 294 296 297 298 297 297 297 299 300 300 299 300 301 300 301 302 303 304 305 306 307 306 305 305 305 305 307 306 306 305 304 303 304 303 303 303 302 302 301 301 301 300
307 301 304 311 305 305 307 302 303 302 303 305 308 309 311 311 311 312 315 316 316 312 309 301 301 299 295 293 292 288 291 299 294 292 289 288 292 289 286 285 288 291 292 295 295 295 296 298 297 297 297 297 298 298 299 300 299 300 302 301 302 303 304 305 307 306 305 304 303 303 306 305 305 305 306 306 305 303 302 302 302 302 302 302 301 301 300
299 298 305 310 311 309 309 309 308 307 308 309 310 313 314 311 314 316 318 315 313 305 300 302 301 295 291 289 295 296 298 294 291 292 289 291 293 289 289 290 292 293 293 293 294 296 297 298 298 297 297 298 298 298 300 301 300 300 302 301 302 303 303 303 305 306 305 304 305 305 307 307 308 307 307 306 304 302 301 300 301 302 302 302 302 302 302
Wind_Speed
21 21 20 21 22 23 24 24 22 21 21 6 4 4 2 6 5 4 8 8 10 2 7 5 5 7 6 4 7 4 5 6 6 5 6 4 5 6 7 7 3 7 4 5 6 6 6 4 5 7 8 8 8 7 9 9 5 7 2 4 4 7 3 7 7 7 8 5 2 1 2 2 5 5 5 3 1 4 5 6 6 7 8 9 6 5 7
21 21 20 20 21 22 23 23 22 18 13 4 5 3 4 5 6 4 7 5 6 6 5 5 6 7 7 8 9 9 9 10 8 9 10 5 5 7 5 7 9 7 4 3 4 2 3 4 6 4 1 4 5 8 9 11 5 8 5 5 7 4 2 4 7 7 7 7 6 3 0 2 4 4 5 6 3 3 3 5 2 8 3 7 7 8 6
20 20 19 20 21 22 23 23 22 19 12 4 3 3 2 1 3 6 7 7 5 6 4 5 5 6 7 6 7 6 6 7 10 9 9 7 6 3 7 7 3 5 3 5 3 4 4 7 2 5 5 5 4 7 9 9 7 6 7 6 6 5 4 4 7 10 10 10 10 8 8 5 5 5 4 6 6 6 3 8 6 5 1 3 9 6 9
20 20 18 20 21 22 23 22 21 18 13 5 3 3 4 2 1 2 6 5 7 8 4 5 4 5 4 6 6 6 7 6 6 6 10 8 9 8 5 4 4 5 5 7 7 7 5 2 6 4 5 5 3 6 6 8 7 8 6 7 4 1 2 4 5 6 4 7 7 5 3 4 3 5 5 6 6 6 4 3 5 5 6 4 9 10 13
20 20 18 19 21 22 23 22 22 18 12 5 3 1 3 1 2 3 3 3 6 6 4 4 3 4 3 2 3 6 5 5 9 8 5 6 6 8 6 3 1 3 5 8 9 8 11 10 8 6 6 4 3 3 7 6 9 7 2 5 2 1 2 4 5 7 6 6 7 6 4 4 4 2 4 4 6 6 5 2 1 6 4 6 5 7 13
20 20 19 19 21 22 23 24 22 20 13 4 4 3 4 1 3 1 3 3 3 2 6 4 6 5 2 6 1 5 6 5 5 7 7 5 3 1 5 7 8 6 6 4 5 6 8 6 7 4 5 3 2 2 5 6 6 5 4 4 2 1 2 3 0 5 5 5 6 5 3 3 3 2 2 3 3 4 3 4 4 5 5 4 10 3 8
19 20 19 18 20 22 23 25 24 21 17 3 5 3 4 4 4 4 3 1 4 5 5 4 6 7 6 5 4 5 6 8 7 5 7 7 7 5 7 8 6 5 3 4 7 3 4 5 4 3 3 3 1 2 4 3 3 3 4 4 3 2 4 2 1 5 4 4 3 3 2 2 0 1 2 1 1 2 2 1 1 2 4 5 7 6 8
18 19 19 18 19 21 23 25 25 23 21 9 4 7 3 4 1 6 3 6 4 3 2 3 3 6 1 1 5 4 4 6 5 6 5 6 7 7 11 10 9 9 9 7 8 9 9 6 5 3 2 4 2 3 4 3 3 2 3 1 3 5 4 1 3 3 3 3 1 1 1 2 1 1 0 1 1 1 1 0 1 1 2 3 5 5 5
17 18 18 18 18 19 21 23 25 25 20 3 6 5 5 3 3 3 1 4 4 1 2 2 3 4 4 4 4 3 6 8 7 9 7 8 8 8 11 9 10 10 10 10 10 7 7 6 6 3 4 4 3 5 4 3 1 2 1 1 1 4 4 3 3 4 4 2 1 1 1 2 4 3 2 3 4 4 5 4 2 3 4 4 4 5 5
16 17 17 17 17 18 19 21 23 25 22 3 3 6 1 1 1 2 4 2 1 0 2 2 2 5 4 4 3 1 6 6 3 8 5 6 7 6 7 6 7 8 9 9 8 5 5 5 3 3 2 2 2 2 4 3 4 2 2 1 1 1 4 5 4 5 4 5 2 1 4 5 7 7 4 3 2 1 3 2 2 2 3 5 7 3 8
15 15 16 16 16 17 18 19 21 23 13 7 4 4 3 3 2 2 3 1 2 1 1 3 3 4 4 3 6 3 5 3 2 2 5 3 6 4 4 4 4 7 8 7 4 4 5 4 2 1 1 1 2 2 3 3 4 4 3 1 2 1 2 1 0 4 4 4 1 4 5 7 3 8 5 1 2 2 4 5 4 4 4 3 7 8 5
13 14 15 15 15 16 17 18 19 19 14 5 3 4 3 3 3 2 2 1 3 1 2 4 4 6 4 5 3 4 4 2 4 2 7 4 5 2 2 3 1 5 5 2 3 4 5 5 5 4 4 4 4 3 2 3 4 2 2 4 1 2 2 1 2 3 3 4 4 4 6 2 7 5 5 2 1 1 1 4 2 3 3 4 4 5 4
12 12 13 14 14 15 16 17 16 16 16 7 5 4 3 2 3 3 2 1 3 2 3 5 4 5 5 5 5 5 4 5 4 5 6 6 5 3 3 3 4 7 2 3 3 3 2 5 4 4 5 4 3 3 3 2 3 2 3 3 4 1 3 2 3 3 1 3 5 4 1 6 4 4 3 3 1 1 3 5 5 3 3 3 4 6 5
11 11 12 12 14 14 15 16 15 17 17 12 4 5 3 3 3 2 2 1 4 2 3 6 5 6 5 4 5 5 5 5 4 3 5 2 4 4 4 3 5 3 2 3 3 3 3 4 4 4 4 4 4 4 3 1 2 3 3 2 3 4 2 4 2 1 4 2 4 1 6 5 7 6 6 4 3 4 4 4 8 9 5 5 5 5 5
10 10 10 11 12 13 14 14 15 15 17 15 3 4 5 5 4 3 1 3 2 3 3 2 4 5 5 5 5 5 4 4 5 4 3 2 1 4 4 4 2 1 3 5 4 4 4 1 4 4 4 5 3 3 4 4 2 1 2 2 2 2 5 2 4 2 5 3 4 4 3 4 6 7 7 3 3 4 3 3 2 8 6 4 4 6 5
9 9 9 10 10 11 13 14 14 15 16 17 3 4 5 5 4 3 3 3 1 2 3 2 3 5 5 4 4 4 1 4 2 4 5 5 3 4 4 2 2 1 3 4 3 4 3 4 2 3 2 1 3 1 2 3 3 3 1 1 2 1 2 4 5 2 3 4 3 3 3 1 7 6 6 5 3 2 2 3 7 8 6 5 4 5 6
8 8 8 9 9 10 11 12 13 13 14 16 5 4 5 6 5 4 3 0 3 3 4 3 3 3 2 4 4 5 4 2 3 4 4 6 6 4 4 3 2 3 3 4 4 4 4 2 3 2 1 2 1 0 2 1 2 4 4 3 2 4 4 4 5 5 4 5 3 3 2 1 6 7 6 6 3 3 6 7 3 9 4 4 3 3 4
8 8 7 8 8 9 10 11 13 13 13 15 7 3 4 5 5 5 3 3 3 1 4 4 5 4 2 2 1 4 2 1 2 1 3 5 4 4 5 4 5 3 3 6 3 5 3 1 3 3 2 4 2 0 2 2 4 2 5 5 4 5 4 4 6 5 3 3 5 5 1 5 7 7 7 6 3 4 7 8 5 5 5 4 4 4 4
7 7 7 7 7 8 8 9 11 12 13 13 7 3 3 5 7 5 3 1 3 1 5 3 2 6 4 2 3 1 1 3 1 3 3 4 3 3 1 1 4 3 6 5 3 5 3 3 1 2 2 3 1 1 2 2 3 2 2 4 3 4 3 4 4 6 5 4 5 4 2 7 6 7 6 6 5 6 5 7 7 6 6 4 3 1 2
6 7 6 6 7 7 7 8 10 11 13 13 10 2 3 3 4 6 5 4 2 4 2 4 6 8 5 6 4 5 5 5 4 5 3 1 5 6 4 5 6 4 4 3 6 1 3 2 1 1 3 2 2 3 3 4 3 4 4 4 5 3 5 5 6 4 2 3 5 2 5 4 4 9 6 5 8 2 6 6 3 2 1 1 3 3 2
6 6 6 6 6 6 6 7 8 9 11 12 11 3 1 3 3 4 4 4 4 5 3 3 3 6 5 7 7 6 5 4 3 5 2 2 5 4 4 3 4 5 3 4 4 3 2 2 4 2 1 2 4 2 2 1 4 6 5 4 5 0 6 4 4 3 3 5 5 3 3 8 9 8 3 6 8 4 2 3 5 4 3 4 3 4 3
5 5 6 5 5 6 6 7 7 8 10 12 13 4 2 3 2 3 3 3 4 4 4 3 1 3 4 5 6 5 5 5 4 4 4 3 5 6 4 2 1 3 0 2 2 2 4 2 0 3 3 3 3 3 1 4 3 7 5 2 5 8 7 4 2 4 6 2 2 7 4 5 6 4 2 4 2 2 2 2 3 4 5 5 5 5 3
4 5 5 5 5 5 5 6 6 7 8 10 9 3 3 2 1 3 3 4 4 6 4 5 4 5 6 8 8 7 7 5 4 3 4 5 4 5 6 4 5 2 1 3 5 5 3 1 4 2 4 4 3 3 5 5 3 5 3 10 5 2 3 2 5 5 5 9 9 3 2 3 5 5 4 3 5 4 3 5 5 4 5 4 5 4 3
4 4 4 4 4 4 4 5 5 6 7 7 6 4 2 3 3 4 4 4 3 5 4 3 5 3 2 3 2 3 6 8 8 5 3 4 7 4 5 5 3 2 3 4 3 5 3 3 4 2 4 3 3 4 4 4 6 5 5 5 8 7 5 5 6 1 1 3 4 9 9 8 8 7 6 6 6 6 4 4 5 5 5 5 5 5 5
4 4 4 4 4 4 4 4 4 5 5 7 6 1 3 2 1 3 4 4 2 5 4 2 2 6 4 2 1 3 4 3 5 8 9 8 8 8 4 4 3 5 4 3 3 5 3 6 3 4 6 3 4 5 4 4 3 5 5 6 4 7 9 7 9 8 8 8 2 2 2 3 4 5 7 9 9 9 7 5 5 5 4 5 5 5 7
3 4 3 4 3 3 3 3 4 4 4 5 5 3 2 2 2 2 4 3 3 3 4 2 4 3 2 3 3 2 2 5 6 7 9 9 10 10 9 3 3 2 1 2 5 6 6 7 6 6 6 4 6 6 7 3 5 2 5 5 2 4 10 5 5 8 9 11 12 10 8 9 9 9 10 8 6 6 6 7 7 6 7 7 7 6 6
3 3 3 3 3 2 3 3 3 3 3 4 3 2 2 2 2 3 3 4 5 3 4 3 2 4 1 6 2 1 3 5 7 7 8 9 10 9 9 7 7 5 6 6 6 8 6 7 7 9 7 5 2 7 6 4 6 8 8 7 7 6 8 5 5 9 9 9 6 4 8 8 9 13 12 11 10 8 7 7 8 8 8 7 8 7 7
2 3 3 3 3 3 3 3 2 3 2 4 4 3 2 2 1 2 2 3 4 5 6 6 5 6 4 2 2 2 2 3 4 6 7 8 10 9 9 9 8 8 7 8 8 8 9 10 11 7 7 4 5 9 7 7 4 7 10 9 8 10 10 8 9 8 8 4 5 4 7 9 9 7 5 9 9 9 10 9 9 8 8 7 7 8 7
2 2 2 3 2 2 2 2 2 3 3 7 3 3 2 1 1 1 3 2 3 4 5 6 6 6 2 4 1 2 2 3 4 6 6 6 8 8 8 8 9 8 8 8 8 9 9 9 6 7 6 3 6 6 5 8 9 11 10 9 9 10 8 9 11 11 13 12 10 8 7 9 9 8 7 7 7 8 9 9 8 7 7 7 7 6 7
0 2 2 1 2 2 1 2 2 3 6 4 3 4 4 4 1 1 2 3 2 3 5 6 5 3 2 3 2 1 2 3 3 4 6 6 5 6 6 7 7 7 7 7 6 8 7 7 7 4 3 1 5 3 3 5 9 9 1 6 2 5 6 9 10 10 10 9 9 8 8 9 9 9 8 8 8 8 7 8 8 7 7 6 6 7 8
1 2 2 2 1 1 1 1 2 4 6 2 3 4 4 2 3 1 4 4 2 3 2 2 5 4 2 2 1 1 2 2 1 1 1 2 3 4 4 5 6 6 6 7 7 7 3 4 5 3 2 4 3 2 4 5 9 10 4 3 6 9 9 10 11 11 11 12 11 9 9 10 8 7 8 8 9 9 7 6 6 5 5 6 6 7 7
3 3 1 1 1 1 2 1 1 4 3 3 3 3 4 3 2 2 3 4 2 3 3 4 3 4 0 4 2 1 2 1 2 3 3 1 2 1 2 4 3 3 5 4 1 2 5 4 3 2 2 7 8 4 4 5 11 12 6 9 12 12 11 11 10 11 13 13 13 12 11 10 11 12 10 8 9 9 8 7 7 6 6 6 6 7 7
5 2 2 0 1 2 2 2 2 3 2 6 11 9 6 5 5 3 6 3 3 2 1 3 3 1 3 3 1 2 3 3 4 3 2 1 1 3 2 1 2 3 3 4 4 3 2 4 4 7 7 9 6 3 6 9 12 13 12 9 7 7 9 11 12 11 12 12 11 13 12 11 11 12 8 7 9 9 8 8 7 6 6 6 7 7 8
3 2 1 1 2 3 2 3 3 4 7 6 3 3 4 11 6 6 3 3 3 1 2 3 2 2 3 2 5 4 3 4 1 2 3 3 0 4 2 3 2 4 5 5 2 4 3 2 6 2 6 7 6 5 6 6 4 5 5 6 8 10 9 10 10 12 12 11 10 12 13 10 4 2 6 7 9 8 8 7 7 7 7 7 8 7 7
4 3 1 4 3 2 4 5 4 3 1 2 3 4 4 8 4 7 4 2 3 3 3 2 1 2 3 2 3 2 3 4 2 2 4 1 1 3 1 3 3 4 3 2 4 5 5 4 2 3 5 3 4 6 5 4 5 6 7 8 8 10 11 11 10 9 10 10 9 9 10 8 7 7 9 10 9 9 9 8 7 7 7 7 7 8 7
4 4 2 3 3 4 3 4 2 2 2 3 4 5 7 8 5 5 1 2 3 3 2 2 1 2 2 3 2 3 1 5 1 2 2 2 2 1 2 2 5 2 2 4 4 3 4 2 2 5 3 3 4 1 2 5 8 9 9 10 10 10 11 12 13 11 8 7 8 8 7 8 9 7 7 9 9 9 9 8 7 6 6 7 7 6 7
4 4 3 3 2 3 2 3 2 2 4 4 8 10 12 10 5 1 1 2 3 2 4 3 4 2 3 4 2 1 2 3 1 4 2 2 3 1 2 2 3 1 3 4 5 5 1 3 5 6 5 6 1 2 3 5 7 9 9 10 9 9 9 9 9 8 7 6 6 7 8 9 8 8 7 6 5 6 7 7 6 6 6 6 6 7 8
3 3 3 2 3 3 3 2 2 5 9 11 11 7 3 4 1 2 2 3 2 3 4 3 5 3 2 4 3 3 3 2 1 4 2 2 3 2 1 3 2 2 5 4 1 2 2 3 4 6 5 2 0 2 5 5 6 6 8 8 8 7 7 6 2 3 5 5 5 6 6 7 8 9 9 8 6 6 6 4 3 3 4 5 6 7 8
5 3 2 2 3 2 3 3 3 5 4 2 2 2 2 2 3 2 2 1 2 4 3 4 3 2 3 5 3 1 3 5 6 2 4 3 3 2 2 3 2 3 3 6 4 5 5 5 4 3 4 3 1 4 6 5 5 6 7 6 6 7 5 3 1 2 4 5 5 9 10 10 10 9 8 8 6 5 4 4 3 2 3 4 5 6 8
3 3 2 2 1 4 4 4 5 5 3 3 2 3 1 3 1 0 1 1 1 1 2 3 2 4 4 5 6 3 2 4 6 5 5 2 3 4 3 4 1 3 5 7 1 5 4 4 4 5 3 3 2 5 6 6 6 7 7 6 6 6 4 3 3 3 4 5 3 7 7 7 9 9 8 7 7 7 6 5 3 3 3 4 5 7 8
1 1 2 2 3 3 3 3 4 3 2 3 2 2 1 1 3 1 1 2 2 1 2 3 2 3 3 3 3 5 4 1 2 3 3 4 3 2 3 4 2 5 6 5 3 2 3 5 5 5 1 3 3 4 6 7 8 8 7 6 6 7 5 3 2 3 4 5 5 8 9 9 9 9 8 8 7 6 5 4 3 2 3 4 6 7 7
3 3 3 2 2 1 3 4 3 3 3 1 2 0 1 2 0 2 2 2 1 2 3 3 3 2 2 1 3 4 1 1 2 2 2 3 2 3 4 2 2 2 3 2 2 3 3 3 4 1 4 1 2 3 5 6 8 10 10 9 6 6 7 4 3 3 5 4 5 7 6 7 7 6 7 7 6 6 5 4 2 2 3 4 6 6 5
2 0 1 3 3 2 2 1 2 2 0 0 1 1 2 1 3 2 1 2 2 3 1 2 3 2 1 2 3 2 3 1 3 1 3 2 2 2 4 3 2 4 3 2 3 4 6 5 6 2 3 2 4 5 7 8 9 10 10 9 8 4 5 6 4 3 4 6 6 5 6 7 7 6 6 6 6 6 5 3 1 1 3 4 4 3 5
3 2 3 3 2 3 2 1 2 1 0 1 1 1 3 3 2 1 3 3 2 3 3 4 0 3 2 5 3 0 3 2 2 3 3 1 2 2 2 2 4 1 1 6 3 6 5 5 3 4 4 4 4 5 7 8 10 11 12 11 9 3 2 4 4 3 2 2 2 3 4 5 6 6 6 5 6 6 4 3 2 3 3 2 2 4 4
3 2 1 2 0 1 0 1 1 1 3 3 3 3 2 4 0 3 3 3 2 2 1 3 4 3 5 3 2 1 1 1 3 3 2 1 4 3 3 4 4 4 5 6 4 5 3 3 4 2 2 2 7 8 7 7 9 10 10 10 10 5 1 2 3 2 3 1 2 3 5 4 4 5 5 5 5 4 3 3 2 2 2 2 3 3 4
2 1 2 2 1 2 1 0 1 1 3 2 3 2 4 3 3 4 3 1 3 2 3 2 3 3 6 0 4 3 1 2 3 1 1 3 4 3 3 4 3 6 5 6 4 6 6 4 1 3 7 10 11 12 12 12 13 11 11 10 8 7 5 2 3 3 4 3 2 3 4 5 5 5 4 5 5 4 4 4 3 2 2 2 3 4 5
1 0 1 1 1 1 2 2 3 2 2 1 1 2 3 4 4 4 2 2 3 2 2 1 3 3 5 4 3 2 2 1 3 1 2 5 4 3 1 4 3 4 6 6 6 8 7 6 8 10 12 13 14 13 13 12 11 11 12 10 9 8 7 4 3 2 4 3 2 5 7 7 6 5 5 6 5 5 5 5 4 3 3 3 4 5 5
0 0 1 2 2 2 3 3 1 1 1 1 2 2 3 3 4 3 2 3 2 2 3 3 4 3 4 2 3 5 4 1 4 0 2 4 3 3 2 4 5 5 4 5 9 9 10 11 12 12 13 14 13 13 12 12 12 12 12 13 12 9 8 6 5 7 8 7 5 6 8 9 8 7 6 7 6 5 5 4 4 3 3 4 4 4 5
1 0 1 1 2 1 2 1 3 3 2 2 2 4 4 4 3 1 1 2 2 3 2 4 4 5 4 2 5 4 3 2 3 1 2 3 3 3 4 5 7 7 6 7 10 11 12 13 14 15 14 14 13 12 12 11 11 12 11 11 10 9 8 7 6 6 8 7 5 7 8 9 9 8 7 7 6 6 6 5 5 4 4 4 5 4 5
1 1 1 2 4 4 2 2 4 3 1 1 3 4 2 3 2 2 1 2 1 2 2 2 2 4 4 4 3 3 2 2 3 2 4 5 4 4 5 6 6 8 11 11 12 12 13 13 13 13 13 14 14 13 13 12 11 10 11 11 9 8 8 7 6 5 9 9 7 6 8 10 9 9 9 8 7 8 7 6 6 6 5 5 5 4 4
1 1 3 3 5 3 1 3 3 4 3 0 2 1 1 1 0 2 2 2 2 3 2 4 3 3 2 2 2 2 1 2 5 3 3 4 4 5 4 7 9 11 11 10 10 12 12 12 12 12 12 14 15 15 13 10 11 11 9 9 8 7 7 7 7 6 9 8 6 4 7 8 7 9 8 8 9 8 8 7 6 6 5 5 4 4 4
1 1 2 2 3 3 2 2 3 5 4 3 3 1 1 2 1 1 1 3 2 3 4 3 4 3 1 2 3 3 3 2 2 2 3 2 2 5 7 9 11 10 10 10 11 10 11 11 12 13 13 14 14 12 12 10 8 8 8 7 6 6 5 7 6 7 10 10 11 8 7 9 11 9 8 9 8 8 7 6 6 5 4 4 4 3 3
Wind_Direction
346 344 340 338 339 340 339 339 340 347 338 328 10 287 347 28 33 16 346 331 301 59 83 80 75 74 89 121 71 66 63 32 24 35 6 66 13 62 48 27 85 60 76 112 101 94 77 29 81 105 93 68 29 360 348 341 336 302 66 240 63 290 225 114 94 105 122 138 100 350 355 264 198 72 27 352 25 340 323 346 339 227 183 217 226 200 120
346 344 342 340 341 341 340 339 341 347 3 333 304 282 52 48 22 38 26 322 275 269 81 88 82 90 103 89 85 63 52 33 47 45 38 28 52 53 58 70 38 83 57 102 110 334 134 90 123 108 23 85 14 16 8 352 26 349 37 324 24 276 99 275 139 157 159 168 178 174 144 201 58 59 48 13 19 328 314 316 281 246 87 312 238 210 147
346 345 343 342 342 342 340 340 338 346 353 325 301 335 21 82 103 43 42 34 359 72 25 83 96 97 91 84 82 89 65 34 41 48 48 41 33 68 58 35 63 80 76 91 86 36 11 128 51 94 98 93 41 38 12 9 24 25 10 320 310 307 30 307 211 183 178 185 193 179 169 131 101 61 56 37 14 7 281 213 185 230 101 273 250 101 112
347 347 344 344 343 342 342 339 339 341 353 311 271 352 250 340 66 70 76 41 81 82 29 48 85 107 109 88 62 71 93 84 52 33 65 39 59 55 87 54 62 95 115 89 80 79 50 108 143 163 119 124 85 22 14 26 29 14 6 337 307 36 30 13 360 347 14 46 51 41 9 156 156 85 45 37 16 1 316 330 222 220 160 130 45 121 133
347 348 348 346 345 343 342 341 338 341 347 333 304 334 351 101 21 360 82 127 76 75 41 60 347 68 324 72 353 70 69 99 76 358 80 31 51 68 36 42 153 84 103 89 86 77 88 82 100 80 105 70 63 38 8 40 30 346 360 356 306 195 163 53 28 46 62 72 68 59 20 88 78 55 60 30 20 3 345 322 91 15 243 118 83 126 149
348 349 351 350 347 345 343 342 341 339 351 307 267 35 344 67 80 7 9 317 44 57 68 24 84 79 89 85 301 61 79 68 85 93 60 86 7 91 66 70 61 72 72 110 100 99 86 88 93 95 69 135 108 140 41 34 17 336 56 356 343 320 140 68 139 93 76 54 59 45 66 58 52 45 25 31 20 10 32 63 37 358 347 100 127 81 138
349 350 353 354 350 347 346 342 341 342 337 282 297 75 58 50 96 55 297 307 58 53 62 27 73 74 61 86 50 78 68 78 57 30 81 58 59 32 96 70 72 82 86 85 95 84 161 102 80 66 92 47 248 136 164 93 25 39 68 59 3 280 74 73 108 121 95 83 62 44 25 46 231 97 68 43 354 37 29 62 32 356 89 103 122 121 116
348 351 354 356 353 351 349 344 343 343 338 305 47 28 351 65 358 103 99 80 96 106 132 78 94 91 346 142 42 50 68 84 94 50 18 88 71 86 89 87 83 84 86 85 80 60 58 100 120 110 151 139 333 68 1 10 81 4 67 330 82 295 108 221 163 151 115 78 142 133 7 4 262 128 143 162 142 190 181 357 123 151 166 91 133 143 153
349 351 355 358 356 356 353 348 346 343 341 83 46 62 17 50 18 339 324 109 56 60 93 110 102 107 93 98 112 99 81 82 67 73 28 57 89 87 92 96 94 86 84 78 75 58 60 63 84 112 344 26 57 319 96 319 18 52 98 54 59 282 121 202 228 214 142 143 147 196 294 270 260 228 198 196 191 201 172 196 133 229 140 163 173 197 175
349 352 356 358 359 359 356 354 349 347 331 41 23 69 74 121 114 274 293 93 265 238 120 139 205 78 47 36 97 53 99 102 128 101 54 60 55 77 90 93 100 88 76 67 57 52 48 52 39 28 36 11 52 27 47 17 2 12 76 320 322 21 151 185 194 229 130 121 219 323 251 237 226 206 157 158 191 348 85 69 74 342 9 186 206 143 71
348 352 356 359 1 2 1 358 355 351 350 44 28 56 21 344 32 186 242 130 140 14 152 72 56 66 119 124 123 123 118 116 352 316 123 124 85 43 42 54 60 69 62 52 42 39 46 40 64 118 112 74 85 79 87 63 37 15 1 191 100 181 248 217 259 265 124 150 205 251 240 225 147 74 82 8 64 157 204 167 152 126 251 26 16 81 98
349 351 357 0 3 4 2 1 358 358 354 15 359 52 19 315 269 276 288 126 96 236 299 68 83 149 140 103 92 115 120 100 86 345 123 120 113 124 113 86 263 94 68 74 112 106 116 113 103 94 87 91 85 75 55 52 62 7 24 335 116 166 225 161 210 252 157 154 208 224 237 157 90 106 90 97 82 169 264 98 157 141 135 120 125 100 105
349 351 356 2 4 4 3 0 359 358 355 346 19 59 26 325 304 1 347 310 109 153 134 117 118 123 122 129 114 105 103 116 96 90 109 140 137 130 30 51 70 94 164 122 136 178 157 87 91 86 93 102 95 86 59 54 42 16 14 11 308 194 222 141 212 260 129 221 197 232 109 87 159 106 104 74 272 44 174 173 161 190 182 176 153 124 118
349 349 354 3 5 6 2 0 357 358 356 342 37 33 24 334 331 360 353 349 105 45 76 125 156 143 151 134 123 129 135 118 101 118 122 119 136 124 117 56 68 105 143 150 169 207 149 195 155 175 153 185 165 195 119 347 25 2 3 350 322 314 305 253 201 179 244 220 222 278 90 182 159 182 181 185 186 183 235 260 175 165 171 222 161 151 145
349 348 352 359 8 6 4 359 357 355 356 343 352 39 28 9 346 342 337 290 105 118 229 261 150 153 156 144 167 159 176 139 180 134 93 116 173 95 81 98 111 149 178 226 181 211 272 235 222 212 167 208 221 156 152 194 134 344 334 325 317 298 296 36 278 163 278 270 236 225 197 250 150 98 103 68 75 37 46 299 235 157 174 191 184 162 159
349 348 348 356 6 8 4 359 357 354 355 340 320 39 48 3 309 296 329 352 296 196 143 33 97 158 165 158 192 261 161 189 152 147 171 177 167 152 148 134 129 238 211 240 291 265 230 233 230 246 243 227 58 109 190 141 172 136 195 315 259 268 266 283 275 249 208 248 257 241 248 120 84 127 120 123 107 166 262 239 251 151 145 144 230 201 147
347 345 345 352 3 7 5 359 356 357 352 354 348 22 37 8 353 339 320 275 271 38 81 122 165 185 175 139 185 211 212 218 179 218 191 180 183 183 150 172 167 230 234 249 205 234 207 216 248 266 115 50 201 357 65 285 196 158 149 207 207 219 210 224 236 251 236 264 254 263 244 227 135 127 143 129 140 135 232 247 205 120 156 135 178 202 185
345 343 343 348 356 3 5 359 354 355 354 348 331 23 37 12 358 311 284 331 323 85 124 157 196 199 221 14 178 87 146 121 217 263 291 99 164 192 176 186 194 138 258 247 213 233 252 245 235 235 193 69 83 250 246 88 224 177 180 189 186 196 210 220 247 247 190 210 263 266 211 133 137 150 139 130 140 235 238 240 102 177 140 179 148 228 172
341 342 341 346 351 357 2 359 354 352 353 351 326 237 80 4 350 330 299 294 319 6 107 151 257 281 349 331 338 135 337 337 307 232 166 189 158 103 173 93 322 200 178 243 227 245 239 203 315 287 261 140 212 230 96 192 207 114 150 171 202 224 240 230 248 251 251 236 251 245 270 67 129 149 157 146 205 210 240 72 142 136 143 137 165 200 185
337 341 339 344 348 353 356 357 353 351 349 352 335 354 57 18 5 354 350 354 334 303 178 182 201 233 223 245 199 199 173 212 225 271 245 293 121 178 184 206 181 258 181 240 226 284 274 237 189 151 246 174 164 97 224 221 282 216 204 219 260 188 201 214 205 220 244 258 247 259 255 120 166 136 164 180 234 49 88 138 89 97 252 172 224 250 264
334 339 339 339 345 348 353 350 352 350 348 349 337 300 167 103 16 5 343 324 310 297 123 113 221 245 242 237 251 279 263 276 185 226 229 20 133 212 238 299 127 196 209 196 261 195 219 237 171 219 16 305 133 193 282 118 207 218 242 219 237 130 243 229 210 201 251 211 215 236 48 105 151 167 247 168 224 65 124 20 211 178 237 246 262 244 256
326 338 336 339 341 344 352 350 351 350 347 347 327 283 259 90 34 21 329 297 276 292 356 43 328 267 255 264 281 284 287 295 322 306 287 181 175 250 359 42 165 249 27 275 227 185 205 243 335 217 209 180 135 230 129 233 232 133 191 217 233 176 228 351 305 150 239 292 335 70 112 138 165 223 281 353 77 165 200 271 301 286 259 246 268 281 252
324 336 337 334 339 337 347 350 354 350 349 350 330 310 342 13 35 2 288 271 232 249 265 239 222 246 248 258 253 258 259 267 290 262 269 284 210 206 244 235 224 198 237 241 289 313 330 222 232 255 264 219 214 207 211 252 289 150 198 195 268 54 294 33 278 257 257 278 273 269 230 188 220 214 258 236 182 206 219 255 275 263 277 278 263 282 274
313 328 335 335 330 337 338 349 352 352 348 352 340 329 358 0 338 310 232 241 286 310 196 195 235 179 158 153 143 202 227 228 235 248 263 275 267 223 194 240 2 141 231 222 302 291 296 260 306 326 253 242 200 231 229 218 229 223 252 199 212 217 190 209 234 230 336 261 170 233 243 240 231 247 222 217 229 232 221 245 249 268 253 243 246 257 261
301 322 331 330 330 325 339 340 352 350 351 349 328 277 277 244 3 325 318 327 314 321 316 181 158 65 88 69 217 237 213 231 206 222 225 225 239 264 316 52 225 282 267 199 181 229 203 248 208 218 248 209 210 251 220 262 221 188 233 241 198 204 179 228 234 241 234 255 268 216 258 254 265 249 233 222 221 227 231 236 246 247 241 246 251 240 248
293 320 339 322 328 327 327 334 337 354 344 19 331 328 310 354 358 287 275 258 252 275 284 287 112 150 142 246 266 340 115 196 201 199 220 225 232 245 263 195 224 150 310 200 211 233 240 248 256 262 257 224 178 259 254 228 308 170 248 267 292 100 144 230 196 227 239 247 259 259 240 239 235 228 233 245 243 225 216 216 220 219 226 227 231 233 258
290 314 341 329 316 326 316 331 330 335 344 337 309 300 285 279 279 271 314 340 294 215 217 263 58 140 206 305 16 163 195 227 209 216 215 219 229 229 235 245 241 217 219 224 233 250 248 258 254 255 231 270 224 248 270 230 230 238 237 222 145 178 226 218 236 246 247 252 262 242 251 252 227 213 218 226 226 225 224 213 217 220 223 223 229 232 229
281 332 341 334 314 304 328 327 332 321 327 295 261 269 261 265 291 275 277 275 294 329 335 321 308 339 355 256 136 254 173 198 218 218 225 222 224 231 235 232 232 243 233 236 238 224 240 245 246 241 262 231 213 238 237 276 288 258 250 239 190 220 235 239 240 248 260 282 292 287 276 277 300 317 236 216 219 217 220 216 217 219 217 216 226 237 242
276 354 4 325 320 308 309 314 326 319 301 277 283 251 210 228 244 221 235 241 283 290 298 288 277 254 277 62 154 229 154 246 226 230 230 226 219 222 228 227 233 237 241 240 251 257 250 252 260 266 256 174 210 248 194 229 234 246 244 244 212 221 253 258 259 265 278 286 286 296 279 269 281 269 252 231 212 209 213 215 213 215 211 211 222 234 264
339 8 12 337 292 316 285 274 294 311 317 291 249 237 224 140 140 200 187 207 245 307 299 325 308 70 42 211 182 238 249 211 239 238 236 235 223 225 226 223 230 233 246 245 250 253 260 265 255 239 80 118 251 26 247 249 251 252 140 72 37 293 291 291 287 272 269 282 292 295 288 275 265 267 251 232 206 210 217 211 204 205 207 222 224 251 263
87 44 349 312 288 279 291 287 295 345 299 275 271 250 256 214 103 87 161 199 199 284 325 280 284 328 241 120 287 308 352 352 264 50 160 246 253 243 226 225 232 224 234 229 232 262 299 253 253 244 90 63 62 215 234 236 247 258 193 175 206 213 224 237 254 256 257 261 268 274 273 267 266 253 239 223 202 203 211 212 198 210 238 233 239 271 273
95 108 81 272 264 250 256 280 283 248 264 278 293 335 23 21 48 77 159 211 197 251 285 300 243 195 175 159 154 120 279 152 197 178 138 215 168 194 184 240 247 208 257 262 27 53 239 256 265 214 178 173 179 236 215 230 249 253 230 235 237 230 235 242 243 249 249 249 253 256 251 251 241 235 242 219 213 205 208 205 211 212 196 224 254 270 277
99 79 62 62 232 220 226 248 284 276 274 322 319 283 253 251 273 276 161 177 218 279 319 249 289 10 245 77 354 137 337 237 195 262 169 207 205 202 220 175 221 225 141 228 206 243 220 209 198 238 224 157 196 202 218 232 244 254 268 285 290 270 254 254 250 251 255 252 240 242 250 252 249 233 236 229 207 202 198 208 218 212 224 236 253 264 267
95 83 144 191 206 244 233 249 225 249 257 251 193 107 128 182 200 262 290 218 281 325 284 287 292 259 312 10 236 112 315 325 305 324 291 112 57 251 245 209 195 260 183 226 179 233 216 249 241 249 114 200 214 240 248 250 279 329 324 280 269 277 280 270 253 246 241 238 230 235 250 262 283 232 206 214 212 210 213 217 214 218 232 248 261 268 278
115 130 188 235 247 254 241 249 237 227 86 108 88 84 97 169 192 147 215 277 245 178 224 211 272 293 300 233 241 130 301 296 297 39 310 65 205 291 261 245 165 256 132 185 258 246 247 241 60 254 240 176 198 232 256 338 337 304 312 312 308 303 293 279 257 245 243 238 232 229 232 224 219 229 231 224 216 208 205 209 218 236 247 262 280 283 286
127 141 179 239 227 218 194 206 231 215 166 55 48 85 109 143 152 166 238 324 311 330 292 57 253 271 307 302 352 91 286 275 280 281 306 317 198 192 281 289 258 217 117 214 255 217 238 130 218 252 147 227 252 303 358 328 327 322 318 321 318 306 291 288 289 280 273 254 241 239 237 234 230 220 220 221 212 204 211 219 213 220 250 268 273 280 285
134 146 168 196 191 217 151 66 79 12 43 61 85 116 137 137 105 134 289 283 203 246 291 304 262 242 268 314 306 93 305 304 55 272 181 243 313 50 230 241 276 87 226 225 230 247 58 124 258 270 251 255 267 98 358 346 325 322 320 315 317 308 301 297 282 272 248 203 206 220 222 223 221 215 203 202 202 195 208 218 233 249 261 271 280 287 295
166 182 188 184 202 188 136 116 64 95 99 107 142 142 170 235 172 163 201 232 173 225 220 233 257 292 246 264 300 73 279 299 309 312 296 62 280 183 215 256 338 292 265 257 173 124 177 229 234 245 252 128 137 72 360 337 328 322 326 325 323 322 321 315 312 207 182 177 189 199 201 205 202 196 191 190 180 184 209 226 225 245 276 286 295 298 299
198 167 190 203 251 43 44 107 114 177 221 148 229 255 181 179 217 212 186 202 169 223 187 242 261 237 262 262 284 110 321 325 305 279 294 65 313 282 150 284 143 244 261 265 162 185 238 205 209 235 255 104 189 40 357 343 339 350 337 335 324 316 328 320 249 256 221 224 220 197 182 177 184 185 185 170 163 163 151 153 164 194 256 282 287 289 297
177 190 177 168 65 85 104 110 161 179 210 238 181 271 217 155 230 231 118 254 242 208 170 239 255 280 282 290 309 317 117 287 312 315 322 300 134 292 17 287 57 272 273 270 123 165 268 277 174 204 190 74 39 10 344 340 349 357 356 343 342 333 317 309 279 224 219 211 199 180 189 183 172 164 164 160 160 159 167 176 186 226 251 276 291 299 299
175 140 179 126 101 121 112 129 150 219 229 225 194 230 326 226 192 258 223 249 278 188 220 288 188 244 221 253 262 298 92 286 317 315 305 284 42 289 252 267 25 280 274 277 89 244 250 261 267 276 101 88 25 359 357 347 356 356 360 4 7 356 342 307 285 237 206 190 163 163 179 172 162 161 162 166 174 185 184 173 187 223 282 290 303 306 305
44 22 69 78 118 158 180 192 227 224 200 281 320 267 223 275 156 208 234 274 302 285 184 213 232 258 356 289 299 300 255 80 312 283 287 271 108 279 297 270 175 250 285 35 349 253 266 269 268 214 113 71 37 8 351 345 349 348 354 1 8 10 1 343 300 226 215 204 163 154 155 156 157 165 167 169 168 166 164 172 185 243 284 313 307 302 318
197 118 196 146 164 162 200 206 185 261 61 217 86 333 227 237 227 274 178 185 136 247 135 209 297 299 241 309 225 196 334 38 272 178 233 295 104 240 277 260 242 259 301 354 266 265 263 270 283 132 120 47 346 350 350 347 342 340 342 347 348 12 8 355 327 279 181 204 184 164 162 158 160 159 161 165 165 155 155 152 114 342 337 316 313 329 329
122 169 178 163 170 129 218 195 173 183 224 229 197 221 218 228 139 176 240 195 187 226 216 275 39 305 297 170 289 253 190 177 209 259 230 141 266 243 251 262 261 34 1 266 263 272 283 288 358 94 71 22 335 349 333 334 331 330 326 328 330 31 31 321 328 299 212 163 211 178 167 162 152 156 163 160 158 154 153 124 77 0 334 324 342 351 353
167 132 181 172 137 123 138 339 233 209 238 197 218 285 330 311 276 228 323 79 233 289 79 241 285 272 293 17 269 203 313 353 102 270 291 267 259 246 247 290 329 307 285 288 283 279 284 304 82 104 130 272 314 319 310 305 296 302 299 310 314 325 11 212 292 326 296 139 134 204 178 158 163 165 165 151 153 149 145 99 48 28 54 24 8 359 4
199 187 176 190 262 252 221 216 129 237 236 249 240 285 308 325 335 325 65 186 254 230 251 285 276 271 286 318 308 339 205 242 263 225 310 266 285 294 349 320 283 288 282 281 291 291 316 5 147 328 348 334 327 322 318 313 308 302 298 296 293 297 292 227 207 252 273 274 208 188 221 160 165 170 162 148 141 130 95 77 67 63 63 46 30 15 15
137 157 264 281 264 194 223 241 207 233 359 260 266 297 306 324 332 321 307 234 251 279 304 352 291 310 307 320 279 203 191 248 292 44 268 275 297 299 248 292 291 284 300 311 298 304 330 340 328 330 331 328 323 319 315 313 315 310 298 286 279 278 277 245 181 212 261 245 216 185 198 173 170 158 153 145 137 120 97 94 93 80 67 57 50 40 35
239 273 257 238 220 194 214 220 333 195 182 319 351 343 329 316 286 246 165 217 265 289 277 265 255 220 236 156 247 309 343 337 288 329 341 316 305 304 332 296 283 300 309 301 306 319 314 330 340 338 328 319 314 310 310 310 307 305 302 295 282 271 273 257 212 201 206 219 206 202 184 160 152 150 147 143 135 110 101 104 98 97 89 75 68 66 53
333 248 249 259 291 282 275 22 287 275 76 42 345 295 276 262 251 280 102 185 230 252 307 292 323 311 320 3 308 311 303 51 293 332 290 271 297 300 292 292 311 307 301 312 316 323 326 326 321 316 312 310 309 308 303 298 297 296 291 285 281 278 271 262 247 206 191 177 173 210 177 152 152 146 146 145 134 120 114 116 112 100 79 78 78 71 57
220 203 219 241 243 224 249 277 259 279 89 311 281 257 226 244 230 119 116 229 201 260 216 231 259 291 340 341 309 306 306 4 328 308 292 303 319 315 304 299 297 305 321 330 325 326 322 316 314 312 313 310 308 307 305 301 291 281 281 278 273 267 271 266 266 209 190 189 167 211 173 152 158 154 152 146 136 128 126 123 114 108 98 90 82 71 54
249 284 273 266 290 6 357 308 341 325 322 291 236 252 198 218 207 112 97 290 257 253 261 318 343 321 323 307 291 303 23 10 277 303 322 318 351 311 303 302 317 327 327 346 339 319 314 312 313 314 309 308 303 303 300 295 292 285 279 273 267 266 267 249 228 205 173 150 132 236 169 156 151 140 136 133 135 133 126 125 123 117 109 102 90 75 61
204 225 229 175 227 275 334 54 264 271 292 307 295 19 245 223 142 91 93 265 267 304 327 351 326 334 318 315 360 326 298 270 265 277 291 23 21 313 323 325 323 331 343 335 322 316 312 312 312 308 301 295 296 305 307 303 282 277 279 269 260 267 271 265 216 182 170 160 156 167 147 134 130 138 142 140 143 142 134 134 138 137 130 117 107 98 75